| time (UTC) | temp F | wind direction | speed knots | gust knots | rain 1hr in | rain 24hr in | rain mn in | humidity % | barometer mb |
| 20260505100018 | 63 | 180 | 9.6 | 19.1 | 0.00 | 0.02 | 0.02 | 65 | 1001.3 |
| 20260505095058 | 62 | 180 | 9.6 | 16.5 | 0.00 | 0.02 | 0.02 | 66 | 1001.3 |
| 20260505094018 | 61 | 180 | 7.0 | 10.4 | 0.00 | 0.02 | 0.02 | 70 | 1001.3 |
| 20260505093019 | 61 | 180 | 6.1 | 11.3 | 0.00 | 0.02 | 0.02 | 71 | 1001.3 |
| 20260505092018 | 61 | 180 | 5.2 | 9.6 | 0.00 | 0.02 | 0.02 | 73 | 1001.5 |
| 20260505091057 | 61 | 180 | 7.8 | 14.8 | 0.00 | 0.02 | 0.02 | 74 | 1001.4 |
| 20260505090038 | 60 | 180 | 5.2 | 10.4 | 0.02 | 0.02 | 0.02 | 76 | 1001.3 |
| 20260505085017 | 61 | 180 | 5.2 | 10.4 | 0.02 | 0.02 | 0.02 | 76 | 1001.4 |
| 20260505084038 | 61 | 180 | 7.0 | 11.3 | 0.02 | 0.02 | 0.02 | 74 | 1001.5 |
| 20260505083037 | 62 | 180 | 4.3 | 8.7 | 0.02 | 0.02 | 0.02 | 72 | 1001.8 |
| 20260505082037 | 63 | 225 | 4.3 | 12.2 | 0.02 | 0.02 | 0.02 | 69 | 1002.1 |
| 20260505081017 | 64 | 225 | 7.8 | 13.9 | 0.02 | 0.02 | 0.02 | 64 | 1002.2 |
| 20260505080018 | 64 | 203 | 4.3 | 9.6 | 0.00 | 0.00 | 0.00 | 60 | 1002.2 |
| 20260505075017 | 64 | 180 | 5.2 | 9.6 | 0.00 | 0.00 | 0.00 | 60 | 1002.0 |
| 20260505074017 | 64 | 180 | 5.2 | 11.3 | 0.00 | 0.00 | 0.00 | 61 | 1001.9 |
| 20260505073017 | 64 | 180 | 6.1 | 12.2 | 0.00 | 0.00 | 0.00 | 62 | 1001.8 |
| 20260505072017 | 64 | 225 | 5.2 | 13.0 | 0.00 | 0.00 | 0.00 | 62 | 1001.9 |
| 20260505071017 | 64 | 180 | 7.8 | 14.8 | 0.00 | 0.00 | 0.00 | 62 | 1002.0 |
| 20260505070037 | 64 | 180 | 7.8 | 14.8 | 0.00 | 0.00 | 0.00 | 62 | 1001.9 |
| 20260505065017 | 64 | 203 | 7.8 | 13.9 | 0.00 | 0.00 | 0.00 | 62 | 1001.8 |
| 20260505064017 | 64 | 180 | 7.8 | 13.9 | 0.00 | 0.00 | 0.00 | 61 | 1001.8 |
| 20260505063017 | 65 | 225 | 9.6 | 20.9 | 0.00 | 0.00 | 0.00 | 60 | 1001.8 |
| 20260505062017 | 66 | 225 | 10.4 | 21.7 | 0.00 | 0.00 | 0.00 | 58 | 1001.8 |
| 20260505061017 | 67 | 203 | 11.3 | 20.9 | 0.00 | 0.00 | 0.00 | 55 | 1001.9 |
| 20260505060039 | 67 | 203 | 8.7 | 19.1 | 0.00 | 0.00 | 0.00 | 50 | 1001.9 |
| 20260505055019 | 68 | 180 | 7.0 | 15.6 | 0.00 | 0.00 | 0.00 | 49 | 1001.9 |
| 20260505054019 | 68 | 225 | 9.6 | 19.1 | 0.00 | 0.00 | 0.00 | 48 | 1001.9 |
| 20260505053018 | 67 | 203 | 7.8 | 18.2 | 0.00 | 0.00 | 0.00 | 48 | 1001.9 |
| 20260505052019 | 67 | 180 | 5.2 | 10.4 | 0.00 | 0.00 | 0.00 | 48 | 1002.0 |
| 20260505051019 | 67 | 180 | 7.8 | 12.2 | 0.00 | 0.00 | 0.00 | 48 | 1001.9 |
| 20260505041019 | 67 | 203 | 6.1 | 13.0 | 0.00 | 0.00 | 0.00 | 45 | 1001.8 |
| 20260505040018 | 67 | 180 | 6.1 | 13.9 | 0.00 | 0.00 | 0.00 | 45 | 1001.8 |
| 20260505035019 | 67 | 180 | 7.8 | 16.5 | 0.00 | 0.00 | 0.00 | 44 | 1001.7 |
| 20260505034018 | 67 | 180 | 7.8 | 13.0 | 0.00 | 0.00 | 0.00 | 43 | 1001.5 |
| 20260505033039 | 67 | 180 | 7.8 | 14.8 | 0.00 | 0.00 | 0.00 | 43 | 1001.6 |
| 20260505032019 | 68 | 180 | 8.7 | 14.8 | 0.00 | 0.00 | 0.00 | 43 | 1001.8 |
| 20260505031018 | 68 | 180 | 8.7 | 15.6 | 0.00 | 0.00 | 0.00 | 43 | 1001.7 |
| 20260505030018 | 68 | 203 | 8.7 | 13.9 | 0.00 | 0.00 | 0.00 | 43 | 1001.7 |
| 20260505025019 | 68 | 180 | 9.6 | 14.8 | 0.00 | 0.00 | 0.00 | 43 | 1001.8 |
| 20260505024038 | 68 | 225 | 7.8 | 17.4 | 0.00 | 0.00 | 0.00 | 42 | 1001.8 |
| 20260505023018 | 68 | 180 | 9.6 | 18.2 | 0.00 | 0.00 | 0.00 | 43 | 1001.9 |
| 20260505022018 | 66 | 180 | 7.0 | 12.2 | 0.00 | 0.00 | 0.00 | 44 | 1001.8 |
| 20260505021018 | 66 | 180 | 6.1 | 10.4 | 0.00 | 0.00 | 0.00 | 44 | 1001.8 |
| 20260505020018 | 66 | 180 | 7.0 | 11.3 | 0.00 | 0.00 | 0.00 | 44 | 1001.8 |
| 20260505015018 | 65 | 180 | 5.2 | 9.6 | 0.00 | 0.00 | 0.00 | 44 | 1001.9 |
| 20260505014019 | 64 | 180 | 5.2 | 8.7 | 0.00 | 0.00 | 0.00 | 45 | 1001.7 |
| 20260505013018 | 64 | 180 | 4.3 | 6.1 | 0.00 | 0.00 | 0.00 | 47 | 1001.8 |
| 20260505012018 | 65 | 180 | 3.5 | 7.8 | 0.00 | 0.00 | 0.00 | 46 | 1001.9 |
| 20260505011038 | 65 | 180 | 3.5 | 5.2 | 0.00 | 0.00 | 0.00 | 46 | 1001.8 |
| 20260505010018 | 67 | 158 | 3.5 | 5.2 | 0.00 | 0.00 | 0.00 | 43 | 1001.7 |
| 20260505005018 | 68 | 158 | 1.7 | 2.6 | 0.00 | 0.00 | 0.00 | 41 | 1001.8 |
| 20260505004018 | 69 | 158 | 2.6 | 3.5 | 0.00 | 0.00 | 0.00 | 39 | 1001.7 |
| 20260505003018 | 70 | 158 | 1.7 | 2.6 | 0.00 | 0.00 | 0.00 | 37 | 1001.7 |
| 20260505002019 | 71 | 158 | 2.6 | 3.5 | 0.00 | 0.00 | 0.00 | 35 | 1001.6 |
| 20260505001021 | 72 | 158 | 1.7 | 3.5 | 0.00 | 0.00 | 0.00 | 33 | 1001.6 |
| 20260505000018 | 73 | 203 | 2.6 | 3.5 | 0.00 | 0.00 | 0.00 | 32 | 1001.7 |
| 20260504235018 | 74 | 158 | 1.7 | 2.6 | 0.00 | 0.00 | 0.00 | 31 | 1001.5 |
| 20260504234018 | 75 | 203 | 1.7 | 4.3 | 0.00 | 0.00 | 0.00 | 30 | 1001.5 |
| 20260504233017 | 75 | 225 | 2.6 | 9.6 | 0.00 | 0.00 | 0.00 | 30 | 1001.4 |
| 20260504232017 | 76 | 225 | 2.6 | 4.3 | 0.00 | 0.00 | 0.00 | 29 | 1001.4 |
| 20260504231018 | 76 | 225 | 2.6 | 6.1 | 0.00 | 0.00 | 0.00 | 29 | 1001.4 |
| 20260504230038 | 76 | 225 | 2.6 | 7.8 | 0.00 | 0.00 | 0.00 | 28 | 1001.4 |
| 20260504225018 | 76 | 225 | 3.5 | 7.8 | 0.00 | 0.00 | 0.00 | 28 | 1001.5 |
| 20260504224037 | 76 | 248 | 4.3 | 10.4 | 0.00 | 0.00 | 0.00 | 29 | 1001.6 |
| 20260504223017 | 76 | 248 | 6.1 | 13.9 | 0.00 | 0.00 | 0.00 | 29 | 1001.8 |
| 20260504222017 | 76 | 225 | 6.1 | 13.0 | 0.00 | 0.00 | 0.00 | 28 | 1001.8 |
| 20260504221017 | 76 | 225 | 7.8 | 14.8 | 0.00 | 0.00 | 0.00 | 29 | 1001.8 |
| 20260504220017 | 76 | 248 | 6.1 | 11.3 | 0.00 | 0.00 | 0.00 | 30 | 1001.8 |
| 20260504215017 | 76 | 248 | 5.2 | 9.6 | 0.00 | 0.00 | 0.00 | 30 | 1001.8 |
| 20260504214017 | 76 | 225 | 7.0 | 13.0 | 0.00 | 0.00 | 0.00 | 29 | 1001.9 |
| 20260504213017 | 76 | 270 | 7.0 | 13.0 | 0.00 | 0.00 | 0.00 | 30 | 1002.0 |
| 20260504212017 | 77 | 225 | 6.1 | 13.0 | 0.00 | 0.00 | 0.00 | 31 | 1001.9 |
| 20260504211017 | 76 | 248 | 8.7 | 13.9 | 0.00 | 0.00 | 0.00 | 30 | 1002.1 |
| 20260504210017 | 76 | 248 | 7.8 | 15.6 | 0.00 | 0.00 | 0.00 | 31 | 1002.0 |
| 20260504205017 | 76 | 248 | 5.2 | 13.0 | 0.00 | 0.00 | 0.00 | 32 | 1002.1 |
| 20260504204017 | 75 | 225 | 8.7 | 16.5 | 0.00 | 0.00 | 0.00 | 33 | 1002.2 |
| 20260504203037 | 75 | 270 | 7.8 | 14.8 | 0.00 | 0.00 | 0.00 | 33 | 1002.3 |
| 20260504202017 | 75 | 248 | 7.8 | 14.8 | 0.00 | 0.00 | 0.00 | 33 | 1002.5 |
| 20260504201017 | 75 | 203 | 8.7 | 18.2 | 0.00 | 0.00 | 0.00 | 34 | 1002.6 |
| 20260504200017 | 74 | 248 | 8.7 | 16.5 | 0.00 | 0.00 | 0.00 | 35 | 1002.7 |
| 20260504195057 | 74 | 225 | 10.4 | 15.6 | 0.00 | 0.00 | 0.00 | 35 | 1002.8 |
| 20260504194018 | 74 | 248 | 6.1 | 14.8 | 0.00 | 0.00 | 0.00 | 35 | 1003.0 |
| 20260504193017 | 74 | 225 | 9.6 | 17.4 | 0.00 | 0.00 | 0.00 | 35 | 1003.1 |
| 20260504192019 | 73 | 225 | 10.4 | 19.1 | 0.00 | 0.00 | 0.00 | 37 | 1003.3 |
| 20260504191039 | 73 | 248 | 10.4 | 20.9 | 0.00 | 0.00 | 0.00 | 38 | 1003.4 |
| 20260504190019 | 72 | 225 | 7.8 | 14.8 | 0.00 | 0.00 | 0.00 | 39 | 1003.5 |
| 20260504185019 | 73 | 225 | 7.0 | 13.0 | 0.00 | 0.00 | 0.00 | 39 | 1003.5 |
| 20260504184018 | 73 | 248 | 6.1 | 13.9 | 0.00 | 0.00 | 0.00 | 39 | 1003.6 |
| 20260504183019 | 72 | 270 | 5.2 | 10.4 | 0.00 | 0.00 | 0.00 | 39 | 1003.7 |
| 20260504182019 | 73 | 248 | 9.6 | 28.7 | 0.00 | 0.00 | 0.00 | 39 | 1003.9 |
| 20260504181019 | 72 | 270 | 8.7 | 14.8 | 0.00 | 0.00 | 0.00 | 40 | 1004.0 |
| 20260504180039 | 71 | 270 | 7.8 | 17.4 | 0.00 | 0.00 | 0.00 | 40 | 1004.0 |
| 20260504175019 | 72 | 248 | 8.7 | 14.8 | 0.00 | 0.00 | 0.00 | 40 | 1004.0 |
| 20260504174019 | 71 | 248 | 7.8 | 16.5 | 0.00 | 0.00 | 0.00 | 40 | 1004.1 |
| 20260504173039 | 71 | 248 | 7.0 | 13.9 | 0.00 | 0.00 | 0.00 | 40 | 1004.1 |
| 20260504172018 | 71 | 225 | 6.1 | 14.8 | 0.00 | 0.00 | 0.00 | 40 | 1004.1 |
| 20260504171018 | 70 | 248 | 7.8 | 12.2 | 0.00 | 0.00 | 0.00 | 41 | 1004.3 |
| 20260504151038 | 64 | 248 | 6.1 | 15.6 | 0.00 | 0.00 | 0.00 | 44 | 1005.5 |
| 20260504141018 | 60 | 225 | 7.8 | 14.8 | 0.00 | 0.00 | 0.00 | 46 | 1005.8 |